Temp
8 8 9 9 9 9 9 9 10 10 10 10 10 10 10 11 11 11 11 11 11 12 12 12 12 12 13 13 13 12 13 15 15 14 13 13 14 14 14 13 12 12 13 13 12
8 8 9 9 9 10 10 10 10 10 10 10 10 10 10 11 11 11 11 11 11 11 12 12 12 12 12 12 13 13 14 15 14 15 14 15 14 15 15 14 12 11 12 12 12
8 8 8 9 9 9 10 10 10 10 10 10 10 10 10 10 11 10 11 11 11 11 12 12 11 11 12 12 13 14 14 15 15 14 15 15 16 15 15 14 11 12 12 12 12
8 8 8 8 9 9 9 10 10 10 10 10 10 10 10 10 11 10 10 11 11 11 11 12 11 12 12 13 14 14 15 15 15 15 15 15 15 15 15 14 12 11 12 12 11
7 8 8 8 9 9 9 9 9 10 10 10 10 10 10 10 11 10 10 11 11 11 11 11 11 11 12 13 14 15 15 15 15 15 15 14 14 13 12 10 10 10 11 12 11
7 8 8 8 8 9 9 9 9 9 10 10 10 10 10 10 9 10 10 11 11 11 11 11 11 12 13 13 14 14 15 15 15 15 15 14 14 14 11 11 12 9 9 9 10
7 7 8 8 8 8 9 9 9 9 10 10 10 10 10 11 10 9 10 10 10 11 10 10 11 12 12 12 13 14 14 14 15 15 15 13 13 13 11 12 10 10 8 8 7
7 7 8 8 8 8 9 9 9 9 9 9 9 10 11 10 11 11 10 10 10 10 10 11 11 11 12 12 13 14 14 14 15 15 13 12 12 12 11 11 10 10 8 6 5
7 7 7 7 8 8 9 9 9 9 9 9 9 10 10 11 11 11 11 10 10 10 10 10 10 11 11 12 13 14 14 15 15 13 13 12 13 11 12 11 10 8 8 7 5
6 7 7 7 8 8 8 9 9 9 9 9 9 10 10 10 10 11 11 10 10 10 10 10 10 11 12 13 14 14 15 15 14 13 13 13 12 12 12 11 9 8 8 7 6
6 6 7 7 7 8 8 8 8 8 9 9 7 9 8 9 11 11 11 10 10 10 10 11 11 12 13 13 14 14 15 15 14 14 14 11 11 10 10 9 8 7 9 8 6
6 6 7 7 7 8 8 8 9 9 9 10 10 10 9 10 10 10 9 9 9 11 11 11 12 13 13 14 13 13 14 14 15 15 14 12 8 7 9 8 7 5 6 8 6
6 6 6 7 7 8 8 9 9 9 9 9 10 10 10 10 10 10 9 10 10 11 12 12 13 13 13 13 13 13 13 14 14 14 14 13 8 8 7 8 6 5 6 7 6
5 5 6 6 7 7 8 8 9 9 8 8 10 10 9 9 9 10 10 10 11 11 12 12 13 13 12 13 13 13 14 14 14 14 14 15 11 8 7 6 6 7 7 7 5
5 5 6 6 6 7 9 8 9 9 11 10 9 10 9 10 10 10 10 10 11 12 12 12 13 13 12 12 12 13 13 13 13 13 14 14 8 8 8 4 5 7 7 6 5
4 5 5 6 6 7 8 8 8 8 10 10 9 10 9 9 10 10 10 10 11 12 12 12 13 12 12 12 12 12 12 12 12 13 14 14 13 7 7 5 5 7 6 5 5
4 4 5 5 6 7 7 8 7 9 11 10 9 9 9 10 10 10 10 10 11 12 12 12 12 12 12 12 12 12 12 12 13 13 14 13 8 6 5 6 5 5 5 5 5
4 4 5 5 6 6 7 7 7 11 11 11 10 10 11 11 11 11 11 11 11 12 13 13 13 12 12 11 12 12 13 13 12 13 14 11 7 3 4 5 5 5 5 4 4
3 4 4 5 5 6 6 5 10 11 11 11 10 10 11 11 11 11 11 12 12 12 12 13 13 12 11 11 11 12 13 13 13 13 13 7 5 4 3 3 4 4 4 3 3
3 3 4 4 5 5 6 7 9 9 10 11 11 11 11 11 11 11 11 11 11 10 10 11 12 12 11 11 11 11 12 12 11 11 8 8 7 7 5 3 2 4 3 2 2
2 3 4 4 4 5 5 7 7 8 9 9 11 11 12 11 11 11 11 10 10 10 10 11 11 11 11 11 11 11 11 11 11 12 12 12 6 4 3 2 3 3 2 2 1
2 2 3 4 4 5 6 6 6 7 9 9 10 11 11 11 11 12 11 9 9 9 10 10 10 12 11 10 10 10 10 10 10 11 10 11 4 2 2 1 2 2 2 1 1
1 2 3 3 4 4 4 5 6 7 7 8 9 10 10 10 10 10 9 9 9 9 9 9 10 11 11 10 10 10 10 10 10 10 10 10 4 2 1 1 1 2 2 1 0
0 1 2 3 3 4 4 5 6 7 7 8 8 8 9 9 9 9 8 9 9 9 9 9 9 10 10 9 9 10 9 9 9 9 10 7 4 3 2 1 1 2 1 0 -1
1 1 3 3 4 4 4 5 6 6 6 7 8 8 9 9 9 9 8 8 8 9 9 8 9 9 9 9 8 8 8 8 8 8 8 7 5 3 1 1 0 1 -0 -1 -1
1 0 2 2 4 4 4 5 6 6 6 7 8 8 9 9 9 9 8 8 8 8 7 8 8 8 8 8 8 8 7 7 7 7 7 6 3 2 1 -0 -1 -0 -1 -2 -2
0 1 2 2 3 4 4 5 6 6 7 7 8 8 8 7 7 8 8 7 7 7 7 7 7 8 8 8 7 7 6 6 6 5 6 5 3 2 1 0 -1 -2 -2 -1 -2
Height
3148 3149 3149 3151 3153 3153 3154 3155 3156 3157 3157 3157 3158 3158 3159 3159 3160 3161 3162 3162 3163 3166 3167 3168 3170 3173 3174 3175 3177 3179 3179 3170 3171 3173 3168 3174 3165 3165 3164 3164 3164 3162 3161 3162 3162
3144 3145 3146 3147 3149 3150 3151 3152 3154 3155 3155 3155 3155 3156 3156 3157 3157 3158 3158 3160 3161 3163 3165 3167 3169 3172 3173 3175 3176 3178 3176 3170 3172 3172 3171 3167 3170 3163 3164 3163 3158 3167 3156 3159 3161
3139 3141 3143 3144 3146 3147 3148 3148 3150 3152 3152 3153 3153 3153 3154 3154 3156 3154 3156 3157 3158 3161 3162 3165 3168 3172 3174 3175 3176 3177 3174 3171 3173 3176 3175 3172 3170 3166 3165 3164 3162 3164 3157 3161 3160
3135 3137 3139 3140 3142 3144 3144 3145 3146 3148 3148 3149 3150 3151 3152 3153 3157 3152 3153 3155 3156 3158 3160 3162 3169 3172 3173 3174 3175 3174 3173 3171 3170 3173 3171 3170 3168 3168 3161 3163 3156 3163 3161 3160 3159
3130 3133 3134 3136 3138 3139 3140 3141 3143 3144 3144 3145 3147 3149 3149 3150 3152 3149 3152 3152 3154 3156 3158 3161 3167 3169 3171 3172 3173 3171 3171 3170 3168 3168 3168 3166 3168 3160 3159 3161 3165 3165 3162 3159 3157
3126 3128 3130 3131 3134 3135 3137 3138 3140 3141 3141 3141 3143 3145 3146 3148 3150 3147 3150 3151 3153 3154 3157 3160 3166 3169 3170 3170 3170 3168 3167 3167 3167 3167 3167 3164 3166 3162 3157 3162 3157 3165 3166 3157 3155
3121 3124 3125 3127 3130 3132 3133 3135 3137 3136 3137 3137 3139 3141 3143 3147 3146 3149 3148 3150 3151 3154 3156 3161 3166 3168 3168 3167 3168 3168 3167 3166 3165 3164 3162 3159 3163 3159 3164 3162 3157 3158 3158 3155 3154
3117 3120 3121 3124 3126 3128 3130 3132 3134 3134 3134 3134 3135 3138 3140 3143 3144 3145 3146 3149 3151 3155 3157 3161 3164 3164 3165 3166 3165 3165 3165 3163 3161 3159 3156 3161 3161 3157 3162 3161 3155 3155 3155 3156 3154
3114 3116 3118 3120 3123 3124 3127 3130 3131 3131 3131 3132 3134 3135 3138 3139 3141 3143 3144 3147 3151 3152 3155 3158 3160 3161 3163 3163 3164 3162 3160 3156 3158 3159 3157 3163 3160 3162 3161 3159 3155 3154 3154 3154 3153
3110 3113 3115 3117 3120 3121 3125 3127 3128 3129 3129 3130 3132 3136 3136 3136 3139 3140 3142 3145 3150 3153 3155 3156 3157 3159 3160 3160 3158 3155 3153 3155 3156 3157 3160 3162 3160 3163 3160 3157 3155 3153 3152 3152 3151
3107 3110 3112 3114 3117 3119 3124 3125 3129 3129 3126 3129 3129 3130 3132 3133 3134 3137 3140 3143 3147 3151 3152 3154 3156 3155 3155 3155 3154 3153 3151 3152 3152 3151 3153 3159 3159 3156 3159 3156 3154 3152 3149 3148 3147
3104 3107 3109 3112 3115 3118 3121 3122 3123 3126 3125 3125 3126 3127 3128 3130 3132 3134 3139 3143 3145 3148 3151 3154 3151 3152 3152 3152 3151 3152 3151 3151 3151 3152 3153 3153 3152 3153 3153 3153 3158 3153 3148 3146 3146
3100 3104 3107 3109 3113 3116 3118 3120 3121 3123 3124 3124 3125 3125 3128 3130 3131 3135 3137 3140 3143 3146 3147 3148 3149 3148 3149 3150 3150 3151 3151 3151 3150 3149 3149 3149 3152 3149 3149 3153 3154 3151 3149 3146 3145
3097 3101 3105 3106 3113 3113 3116 3118 3121 3123 3124 3124 3124 3124 3126 3128 3130 3135 3135 3140 3142 3144 3146 3146 3146 3147 3148 3149 3151 3149 3148 3148 3147 3148 3147 3144 3148 3154 3153 3153 3152 3149 3149 3147 3145
3094 3098 3101 3105 3109 3111 3115 3117 3120 3122 3121 3122 3120 3121 3123 3127 3130 3131 3134 3138 3140 3142 3144 3144 3144 3145 3146 3148 3148 3147 3147 3147 3146 3145 3143 3140 3146 3151 3158 3153 3150 3148 3148 3146 3143
3092 3095 3098 3102 3105 3109 3112 3116 3120 3124 3118 3119 3118 3119 3122 3126 3129 3130 3132 3135 3138 3139 3141 3141 3142 3143 3144 3144 3145 3145 3145 3145 3143 3141 3137 3134 3134 3154 3154 3154 3149 3148 3146 3143 3142
3089 3092 3096 3099 3104 3107 3110 3115 3121 3118 3115 3118 3117 3118 3123 3126 3129 3130 3132 3134 3136 3139 3138 3138 3139 3140 3142 3142 3143 3143 3143 3141 3136 3133 3131 3132 3138 3151 3150 3149 3149 3147 3145 3143 3141
3085 3089 3093 3097 3102 3105 3109 3114 3115 3112 3113 3114 3117 3120 3124 3126 3128 3130 3132 3133 3134 3135 3133 3132 3135 3137 3139 3141 3141 3139 3140 3138 3134 3130 3130 3134 3144 3150 3149 3149 3148 3147 3146 3143 3141
3081 3086 3090 3095 3099 3103 3107 3110 3110 3110 3112 3114 3118 3121 3122 3125 3128 3130 3131 3131 3132 3135 3135 3132 3133 3136 3138 3139 3141 3138 3137 3137 3135 3132 3129 3141 3149 3149 3149 3150 3148 3146 3144 3142 3140
3077 3083 3087 3092 3096 3100 3104 3105 3107 3107 3110 3114 3116 3119 3121 3123 3127 3129 3131 3130 3132 3133 3134 3135 3135 3137 3138 3139 3139 3139 3139 3137 3137 3137 3142 3145 3147 3152 3154 3152 3147 3146 3144 3141 3139
3074 3080 3085 3089 3093 3097 3099 3105 3106 3106 3109 3113 3115 3117 3119 3121 3124 3127 3130 3131 3132 3134 3135 3136 3137 3138 3138 3138 3138 3139 3139 3138 3138 3136 3133 3133 3151 3153 3152 3151 3148 3145 3143 3141 3139
3071 3077 3081 3085 3091 3093 3097 3102 3103 3105 3109 3110 3112 3116 3118 3120 3123 3125 3126 3128 3131 3133 3136 3136 3136 3135 3137 3138 3139 3140 3141 3141 3141 3139 3138 3137 3152 3150 3150 3148 3146 3144 3143 3141 3138
3067 3073 3077 3082 3087 3091 3095 3098 3102 3105 3108 3111 3113 3115 3118 3121 3124 3124 3125 3129 3131 3132 3134 3136 3138 3136 3136 3141 3140 3140 3142 3142 3141 3140 3137 3137 3151 3150 3149 3147 3145 3144 3143 3141 3138
3066 3070 3074 3078 3082 3088 3093 3097 3100 3102 3106 3110 3113 3116 3119 3121 3123 3125 3126 3128 3130 3132 3135 3137 3138 3139 3140 3141 3143 3142 3142 3142 3141 3141 3139 3142 3148 3152 3151 3149 3146 3144 3142 3140 3137
3063 3069 3070 3074 3080 3085 3091 3096 3100 3101 3104 3109 3112 3116 3119 3121 3123 3124 3126 3127 3130 3132 3134 3137 3139 3140 3141 3143 3143 3142 3143 3143 3143 3143 3143 3147 3148 3151 3150 3148 3146 3143 3141 3139 3136
3059 3063 3068 3072 3079 3084 3088 3093 3098 3102 3104 3108 3112 3115 3118 3122 3123 3124 3126 3128 3130 3132 3134 3136 3139 3140 3141 3142 3143 3143 3144 3145 3145 3146 3147 3147 3149 3149 3147 3146 3145 3143 3141 3138 3135
3054 3062 3066 3070 3076 3081 3085 3091 3098 3100 3103 3108 3111 3115 3116 3117 3119 3120 3123 3126 3130 3133 3134 3136 3137 3140 3140 3142 3143 3146 3146 3146 3147 3147 3148 3148 3150 3151 3150 3149 3147 3144 3141 3138 3134
Wind_Speed
24 23 20 20 20 18 17 16 14 13 13 13 12 14 15 16 17 17 16 17 17 16 17 15 17 14 12 11 10 12 20 28 14 18 6 12 9 3 8 3 5 5 9 13 10
24 24 22 21 21 20 19 19 19 17 15 14 13 12 14 15 16 17 18 17 16 14 15 14 15 14 13 9 11 17 18 25 13 13 14 16 5 4 7 8 10 8 8 10 11
26 25 23 21 22 22 21 21 22 22 18 17 14 12 11 13 11 14 15 14 14 13 14 13 10 10 15 14 14 18 23 24 19 10 15 14 12 10 11 8 12 4 11 14 14
27 27 25 23 23 22 21 21 22 23 21 19 16 13 11 10 3 7 13 12 13 14 15 17 14 16 17 16 17 20 22 24 21 17 16 14 13 16 16 15 21 8 17 14 15
28 28 25 24 24 22 21 21 21 21 20 19 19 15 12 12 12 17 12 11 13 13 15 17 15 14 16 16 17 21 21 21 22 22 16 16 15 12 6 11 12 20 23 19 20
28 27 25 23 23 22 20 19 19 19 19 19 20 18 14 12 6 17 10 8 11 12 14 14 12 13 15 17 19 20 17 19 19 21 22 15 17 19 12 11 13 19 27 16 19
26 25 24 22 21 20 18 17 17 17 17 18 20 21 17 10 14 10 10 8 7 10 13 10 13 16 13 16 16 19 21 21 21 22 26 13 13 10 19 19 9 4 14 16 10
25 24 22 21 19 18 16 15 15 15 15 16 18 20 18 16 14 13 10 11 12 13 13 12 14 17 18 17 18 17 19 23 23 23 2 9 17 16 6 7 8 12 9 6 8
24 23 21 19 18 15 14 14 13 12 11 13 15 17 12 18 15 12 11 11 11 12 12 13 13 14 14 16 19 20 25 28 18 12 17 17 20 3 9 3 11 7 10 5 8
23 22 20 18 17 14 14 12 10 10 9 10 11 11 14 12 10 17 13 14 13 12 13 13 12 14 16 18 25 22 26 15 18 18 2 14 10 5 5 9 8 10 7 6 5
23 21 19 17 16 14 13 11 8 9 10 12 7 10 3 15 20 13 13 15 13 16 16 14 13 17 17 18 20 19 23 13 9 10 14 15 6 9 10 7 8 8 3 2 5
23 20 19 17 15 14 13 13 11 11 8 12 11 18 14 6 11 11 12 16 17 18 16 15 19 15 18 14 9 13 17 19 20 18 4 6 18 12 12 20 9 5 4 5 6
23 21 19 17 15 14 14 11 9 10 6 8 9 11 10 9 8 9 16 17 16 16 18 18 16 9 6 12 14 16 19 19 21 20 14 5 14 11 9 1 10 8 2 5 6
23 21 20 18 17 16 15 11 9 8 6 9 8 8 12 10 10 10 13 13 16 16 16 19 17 14 11 14 14 18 14 16 13 14 21 19 3 9 5 3 4 2 4 6 7
24 23 20 18 16 17 13 11 10 10 4 9 11 12 9 14 5 15 13 14 16 14 14 18 15 16 13 17 16 20 16 13 16 20 23 23 16 21 8 5 2 4 5 6 9
25 24 22 21 19 15 14 13 11 6 6 9 7 10 18 11 8 10 12 13 10 13 13 15 6 9 11 11 10 13 14 16 19 22 20 26 10 13 5 5 2 3 6 8 12
27 25 22 20 20 17 17 15 8 7 11 9 9 14 14 9 10 11 13 13 11 9 13 12 15 11 9 10 10 10 10 16 15 15 7 6 15 10 6 5 3 5 9 14 16
28 25 23 21 18 18 19 20 7 11 9 9 15 15 12 12 10 12 11 12 11 9 11 13 14 10 7 4 11 9 14 14 15 11 7 3 12 8 5 7 7 10 12 13 12
28 26 24 22 21 21 22 11 9 7 13 13 14 15 13 14 7 10 10 8 6 9 7 9 7 3 1 3 6 5 9 8 10 16 17 12 16 12 8 6 8 12 14 15 15
28 26 26 22 21 23 25 13 6 10 12 14 15 16 13 15 9 12 11 5 3 6 5 4 1 3 1 3 2 6 6 9 3 4 5 9 14 10 3 3 7 11 11 13 16
26 24 25 24 23 25 23 7 9 13 19 10 15 14 11 16 12 12 10 4 7 2 4 3 7 4 4 2 3 6 5 7 10 10 6 4 8 4 4 3 6 9 13 16 16
27 20 25 24 25 26 22 8 13 10 23 15 9 12 8 11 10 10 11 6 11 9 3 6 3 1 6 1 2 4 6 8 8 14 16 10 6 4 3 3 7 11 14 15 17
28 22 22 26 23 18 15 16 15 11 15 10 7 9 9 11 8 8 6 10 11 8 6 5 3 8 4 2 5 2 7 8 7 7 9 4 8 4 4 4 6 12 15 15 17
26 17 24 29 23 19 15 16 17 17 15 13 8 9 9 10 6 10 6 11 9 10 8 7 1 3 3 5 5 2 5 7 5 5 8 10 13 6 3 3 8 13 15 15 16
28 9 25 31 27 22 16 15 16 18 11 12 10 12 10 8 8 10 9 8 7 8 9 6 3 3 5 3 3 4 5 6 7 6 9 14 12 5 3 3 7 10 12 14 15
28 16 20 11 27 24 18 17 17 14 12 13 13 12 11 8 7 11 10 8 4 7 3 6 4 5 3 3 5 5 4 5 6 7 6 5 7 2 4 9 9 12 11 13 16
29 20 24 15 27 24 21 21 18 18 18 14 12 14 13 13 13 16 15 12 9 7 5 4 7 4 3 2 1 1 3 3 6 6 6 8 6 4 2 2 2 7 14 16 19
Wind_Direction
252 252 250 254 259 259 260 262 260 259 263 264 259 258 254 253 254 252 248 242 246 247 250 239 230 223 225 233 249 248 274 275 334 330 52 336 355 233 319 270 141 236 285 313 316
251 252 253 254 257 259 260 264 265 258 259 262 262 262 258 253 254 256 250 250 249 246 242 239 230 223 228 242 252 248 259 264 322 313 301 327 280 273 0 224 228 306 337 332 314
249 252 251 252 256 257 259 261 264 264 254 256 260 261 261 256 258 267 258 255 245 236 225 213 207 238 242 245 246 246 255 273 291 299 299 297 308 346 327 70 342 320 351 334 323
248 250 251 251 254 257 259 262 264 263 259 251 251 254 253 242 150 275 269 259 236 224 214 200 211 229 241 245 244 255 258 269 285 292 290 304 310 331 334 320 302 311 330 322 312
245 247 248 250 253 253 256 259 260 260 257 249 241 243 240 237 209 271 265 251 226 219 214 204 219 233 242 247 253 253 263 267 277 292 301 294 310 316 335 92 52 358 337 333 326
242 243 243 245 248 250 253 256 258 258 254 248 236 232 232 231 204 260 264 237 219 212 203 188 226 234 251 253 262 263 275 272 273 275 277 279 296 297 287 231 237 324 319 316 305
238 237 237 238 242 246 248 252 257 258 256 249 236 226 229 215 220 238 244 229 214 213 203 215 229 240 256 259 260 267 274 276 277 281 272 257 282 281 323 310 324 306 266 288 290
233 232 231 233 236 239 242 248 255 257 253 248 232 226 229 225 240 244 239 217 207 209 218 218 247 245 245 256 266 267 265 270 274 271 209 279 297 260 204 322 208 244 234 229 193
228 227 225 226 229 231 237 244 251 254 244 231 222 222 225 235 235 238 229 215 230 224 222 220 237 239 250 252 262 259 260 260 280 314 276 265 290 261 314 177 164 184 266 240 217
222 221 218 219 224 222 231 236 247 248 236 218 214 206 226 241 242 223 221 199 204 223 226 231 237 246 243 243 249 251 256 263 278 278 286 302 110 93 60 130 160 189 255 258 237
216 214 212 214 216 217 219 219 225 245 219 191 210 173 209 214 226 222 216 201 189 215 219 227 230 235 241 241 253 269 278 278 233 302 276 277 118 117 93 82 150 213 249 251 223
212 207 207 207 210 213 212 216 221 225 212 216 215 208 223 232 213 199 201 202 202 212 220 229 231 247 255 267 282 280 289 290 290 287 173 154 109 97 133 113 127 160 170 248 270
208 204 206 201 207 210 214 218 214 206 214 229 223 222 222 205 176 221 202 201 210 216 220 228 230 205 261 261 273 276 271 278 281 289 289 189 116 69 43 87 164 163 247 298 301
206 205 204 200 204 202 213 206 200 197 206 226 234 231 209 185 207 163 215 194 211 227 231 238 244 266 255 265 268 273 277 291 292 283 279 281 142 91 20 99 118 90 337 334 332
207 207 203 201 203 200 199 196 190 174 238 183 193 221 210 145 184 198 179 201 215 226 232 240 242 254 263 265 261 265 275 284 277 276 283 272 123 157 151 106 71 42 7 2 359
210 206 204 203 204 205 194 189 179 180 226 181 213 201 168 189 191 181 190 176 208 227 233 242 270 239 258 265 261 268 269 275 273 264 263 266 259 155 165 104 0 21 28 14 348
212 206 205 203 208 197 188 183 165 235 153 185 175 165 166 178 188 190 177 188 189 196 221 232 239 246 255 261 259 251 266 275 261 237 248 24 78 120 139 156 178 34 23 358 346
211 206 205 204 200 192 183 177 215 211 194 160 166 159 169 161 164 171 178 188 219 245 270 228 204 207 194 260 283 276 248 257 303 311 325 102 129 121 76 77 55 20 0 356 352
208 207 204 201 197 189 180 187 203 194 177 162 164 174 187 178 180 182 194 205 187 213 279 328 136 129 181 274 262 328 259 292 300 294 281 97 98 87 51 9 19 4 358 353 351
204 204 203 197 195 189 184 188 219 183 161 177 177 182 180 189 189 194 194 188 202 205 228 341 205 165 112 242 240 259 313 309 12 328 14 111 105 114 102 17 357 356 351 352 348
198 200 194 194 191 190 192 202 204 197 172 178 198 197 197 186 188 196 189 163 185 225 187 271 229 131 217 229 57 355 14 346 332 304 312 313 84 70 102 120 328 349 353 347 343
192 191 193 190 188 192 182 207 195 207 189 176 171 187 188 174 189 186 159 170 193 161 157 209 256 273 118 297 327 350 7 347 343 322 318 309 97 100 101 48 355 354 349 344 339
184 194 191 187 184 192 196 203 173 188 188 167 160 153 187 175 173 165 195 200 186 188 171 161 240 269 223 14 41 15 360 344 316 293 296 349 123 101 64 40 355 349 342 338 335
169 197 188 189 178 186 197 193 179 164 178 179 187 164 168 175 175 181 203 189 200 198 189 167 231 346 97 174 298 358 351 355 329 301 346 87 128 111 64 356 335 339 338 341 335
177 191 195 194 186 171 189 186 183 176 163 163 168 178 172 179 179 176 175 180 193 198 197 140 157 118 94 99 67 57 47 48 55 29 68 92 101 99 109 193 294 323 338 338 334
169 171 183 191 189 176 174 185 183 177 168 171 178 169 176 172 179 172 166 154 150 147 147 154 168 137 95 76 60 71 78 78 69 70 88 119 104 108 10 17 348 340 345 340 333
181 177 169 179 189 186 177 171 176 177 167 172 166 161 158 151 130 153 161 150 137 157 151 138 153 168 168 122 25 130 91 84 97 74 48 99 102 68 71 103 68 335 331 330 324